Regional Weather Roundup
Issued by NWS

Home | Current Version | Previous Version | Graphics & Text | Print | Product List | Glossary On
Versions: 1 2 3 4 5 6 7 8 9 10 11 12 13 14 15 16 17 18 19 20 21 22 23 24 25 26 27 28 29 30 31 32 33 34 35 36 37 38 39 40 41 42 43 44 45 46 47 48 49 50
035
ASUS44 KMEG 212310
RWRTN
TENNESSEE HOURLY STATE WEATHER ROUNDUP
NATIONAL WEATHER SERVICE MEMPHIS TN
600 PM CDT THU MAY 21 2015

TNZ002-004-019-021-049-052-054-088>092-220000-
WEST TENNESSEE

CITY           SKY/WX    TMP DP  RH WIND       PRES   REMARKS
MEMPHIS INTL   CLOUDY    56  44  64 NE10      30.19F
NWS MEMPHIS      N/A     55 N/A N/A MISG        N/A
JACKSON        CLOUDY    57  46  66 NW7       30.18F
DYERSBURG      CLOUDY    57  36  44 NW6       30.20F
PARIS          CLOUDY    55  43  62 N6        30.17F
LEXINGTON      CLOUDY    55  46  71 NW6       30.16S
$$

TNZ008-025-027-028-033-062-065-066-220000-
NORTH MIDDLE TENNESSEE

CITY           SKY/WX    TMP DP  RH WIND       PRES   REMARKS
NASHVILLE      CLOUDY    58  46  64 NW7       30.15S
CLARKSVILLE    CLOUDY    57  45  64 N14       30.17R
SMYRNA         CLOUDY    58  48  69 N8        30.16S
COOKEVILLE     PTSUNNY   54  48  82 VRB6      30.12S
CROSSVILLE     CLOUDY    52  46  80 NW7       30.11S
$$

TNZ061-075-076-078-094-096-097-220000-
SOUTH MIDDLE TENNESSEE

CITY           SKY/WX    TMP DP  RH WIND       PRES   REMARKS
FAYETTEVILLE   CLOUDY   N/A N/A N/A MISG      30.13S
TULLAHOMA      CLOUDY    54  46  76 N8        30.14S
WINCHESTER     CLOUDY    54  48  82 N10       30.13S
MCMINNVILLE    CLOUDY    54  48  82 NW6       30.13S
COLUMBIA       CLOUDY    55  48  76 VRB6      30.14S
SHELBYVILLE    CLOUDY    55  48  76 NW8       30.15S
$$

TNZ017-018-042-046-047-220000-
NORTHEAST TENNESSEE

CITY           SKY/WX    TMP DP  RH WIND       PRES   REMARKS
TRI CITIES     CLOUDY    62  48  60 W15G23    30.01R
ELIZABETHTON   MOCLDY    61  46  59 NW8       30.00R
$$

TNZ012-013-036-069-073-074-220000-
CENTRAL EAST TENNESSEE

CITY           SKY/WX    TMP DP  RH WIND       PRES   REMARKS
KNOXVILLE      CLOUDY    60  48  64 W12       30.05S
OAK RIDGE      CLOUDY    60  47  61 VRB5      30.09R
GATLINBURG     CLOUDY    59  48  67 SW12      30.05R
MORRISTOWN     MOCLDY    59  50  72 NW13      30.06R
$$

TNZ083-085-099-220000-
SOUTHEAST TENNESSEE

CITY           SKY/WX    TMP DP  RH WIND       PRES   REMARKS
CHATTANOOGA    CLOUDY    60  48  64 NW12G21   30.09S
$$

SKY/WX REPORTED AS FAIR MEANS FEW OR NO CLOUDS BELOW
12 THOUSAND FEET.




USA.gov is the U.S. government's official web portal to all federal, state and local government web resources and services.